Погода в Карасево

Россия / Курганская область     55°03′07″N   62°22′22″E
темп.,
°C
ветер,
м/с
пор.,
м/с
влажн.,
%
обл.,
%
осадки,
мм/ч
давл.,
гПа
погр.,
м
13 мая, чт
чт1323:00+17в34556 0.0 102763
02:00+15юв22585 0.0 102711
05:00+14ююз116249 0.0 102710
08:00+19зюз33486 0.0 1027261
11:00+24з443660 0.0 10261184
14:00+27сз55285 0.0 10252063
17:00+27ссз56265 0.0 10242272
20:00+23ссв33385 0.0 102428
14 мая, пт
пт1423:00+19св11446 0.0 102511
02:00+18з22495 0.0 102611
05:00+16всв115648 0.0 102711
08:00+22юз11425 0.0 1027183
11:00+27юз33305 0.0 10271668
14:00+29зюз34250 0.0 10252771
17:00+29юз35255 0.0 10243010
20:00+25ююз45376 0.0 102372
15 мая, сб
сб1523:00+22зюз334148 0.0 102341
02:00+19сз33490 0.0 102338
05:00+17сз335852 0.0 102427
08:00+22зсз34425 0.1 1024269
11:00+27з343068 0.1 10231347
14:00+29з45265 0.0 10222221
17:00+30з46245 0.0 10212924
20:00+26зюз34385 0.0 102061
16 мая, вс
вс1623:00+21з334651 0.0 102123
02:00+19з33535 0.0 102134
05:00+17сз33585 0.0 102230
08:00+23зсз34455 0.0 1022249
11:00+28з34305 0.0 10211268
14:00+31зюз452440 0.0 10192502
17:00+31зюз56225 0.0 10183269
20:00+26юз34368 0.0 101754
17 мая, пн
пн1723:00+22зюз3341100 0.0 101840
02:00+20сз45445 0.0 101767
05:00+19сз34495 0.0 101844
08:00+24зсз46430 0.0 1018296
11:00+29з46273 0.0 10172969
14:00+30з8723100 0.0 10153252
17:00+28зюз582699 0.3 10151406
20:00+24зсз2238100 0.0 101415